Tracking 19242 objects as of 19-Sep-2018
HD Live streaming from Space Station
objects crossing your sky now

FENGYUN 1C DEB

Track FENGYUN 1C DEB now!
10-day predictions


NORAD ID: 31879
Int'l Code: 1999-025CKE
Perigee: 614.5 km
Apogee: 941.5 km
Inclination: 99.7 °
Period: 100.3 minutes
Semi major axis: 7148 km
RCS: 0.0119 m2 (small)
Launch date: May 10, 1999
Source: People's Republic of China (PRC)
Launch site: Taiyaun Space Center, China (TSC)

Note: This is SATELLITE DEBRIS
aabbcc
Your satellite tracking list
Your tracking list is empty




NASA's NSSDC Master Catalog

Two Line Element Set (TLE):
1 31879U 99025CKE 18261.44035409 +.00000081 +00000-0 +36876-4 0  9993
2 31879 099.7335 116.8127 0228673 078.4806 284.1955 14.36274725252355
Source of the keplerian elements: AFSPC